sat.trackr.live / text

‹ back to catalog

STARLINK-36619

NORAD 67645 · 2026-020AE

PAYLOAD ACTIVE UNKNOWN

§ Identity

Operator
Country
US
Launch date
2026-01-30
Launch site
AFETR
Launch vehicle
Mass (kg)
RCS (m²)

Purposes: comms

External: N2YO · Heavens-Above · Gunter

§ Orbital elements

Epoch: 2026-09-19T22:18:36.301248Z

Period
94.27 min
Inclination
43.0070°
Eccentricity
0.0000861
Mean motion
15.27583390 rev/d
Perigee alt
482.4 km
Apogee alt
483.6 km
Semi-major
6,861.2 km
B*
3.7983e-4
RAAN
122.4984°
Arg perigee
258.7474°
Mean anomaly
101.3281°
Rev number
3,582

§ Raw data

STARLINK-366191 67645U 26020AE  26262.92958682  .00010205  00000+0  37983-3 0  99952 67645  43.0070 122.4984 0000861 258.7474 101.3281 15.27583390 35823

JSON: /api/v1/satellites/67645 · /tle

For live sub-satellite position, see the globe view (requires WebGL).

§ Visibility from observer

Set your observer location to see the next 7 days of passes ≥ 10°. The values pass through the URL so the page stays shareable.

No JS? Fill the form by hand. The geolocation button needs JavaScript.